Home > Weather > Salvador > Past weeks

Flag for Brazil Weather for the Past 2 Weeks in Salvador, Bahia, Brazil

Now
88 °F

Scattered clouds.


Feels Like: 96 °F
Forecast: 76 / 86 °F
Wind: 14 mph from East

Location: Salvador Aeroporto

Current Time: Feb 10, 2016 at 10:41:03 AM

Latest Report: Feb 10, 2016 at 10:00 AM


Visibility: N/A

Pressure: 30.04 "Hg

Humidity: 62%

Dew point: 73 °F

Location of SalvadorLocation

Historic Weather in Salvador — Graph

°F

Salvador Temperature Yesterday

Maximum temperature yesterday: 88 °F (at 10:00 AM)
Minimum temperature yesterday: 81 °F (at 12:00 AM)
Average temperature yesterday: 84 °F

High & Low Weather Summary for the Past Weeks

 TemperatureHumidityPressure
High90 °F (Jan 28, 12:00 PM)89% (Jan 28, 1:00 AM)30.07 "Hg (Jan 28, 1:00 AM)
Low75 °F (Feb 2, 5:00 AM)49% (Feb 8, 11:00 AM)29.83 "Hg (Jan 26, 5:00 PM)
Average83 °F70%29.97 "Hg
* Reported Jan 26 9:00 AM — Feb 10 9:00 AM, Salvador, Weather by CustomWeather, © 2016

Note: Actual official high and low records may vary slightly from our data, if they occured in-between our weather recording intervals... More about our weather records

Advertising

Salvador Weather History for the Previous 24 Hours

 ConditionsComfort  
Time TempWeatherWind HumidityBarometerVisibility
9:00 AM
Wed, Feb 10
88 °FScattered clouds.10 mph62%30.04 "HgN/A
8:00 AM86 °FScattered clouds.10 mph66%30.04 "HgN/A
7:00 AM84 °FScattered clouds.9 mph70%30.01 "HgN/A
6:00 AM81 °FPassing clouds.5 mph79%30.01 "HgN/A
5:00 AM81 °FPassing clouds.5 mph74%29.98 "HgN/A
4:00 AM81 °FPassing clouds.9 mph79%29.98 "HgN/A
3:00 AM81 °FPassing clouds.8 mph79%29.98 "HgN/A
2:00 AM82 °FPassing clouds.10 mph74%29.98 "HgN/A
1:00 AM82 °FPassing clouds.10 mph74%29.98 "HgN/A
12:00 AM82 °FPassing clouds.12 mph74%30.01 "HgN/A
11:00 PM
Tue, Feb 9
82 °FPassing clouds.9 mph74%30.01 "HgN/A
10:00 PM82 °FPassing clouds.12 mph74%30.01 "HgN/A
9:00 PM82 °FPassing clouds.12 mph74%30.01 "HgN/A
8:00 PM84 °FPassing clouds.9 mph70%30.01 "HgN/A
7:00 PM84 °FPassing clouds.8 mph66%30.01 "HgN/A
6:00 PM84 °FPassing clouds.9 mph62%30.01 "HgN/A
5:00 PM86 °FPassing clouds.12 mph55%30.01 "HgN/A
4:00 PM88 °FPassing clouds.8 mph55%30.01 "HgN/A
3:00 PM88 °FScattered clouds.10 mph55%30.01 "HgN/A
2:00 PM88 °FScattered clouds.10 mph52%30.01 "HgN/A
1:00 PM88 °FScattered clouds.12 mph55%30.04 "HgN/A
12:00 PM88 °FScattered clouds.13 mph52%30.07 "HgN/A
11:00 AM88 °FScattered clouds.12 mph52%30.07 "HgN/A
10:00 AM88 °FScattered clouds.8 mph52%30.07 "HgN/A
Weather by CustomWeather, © 2016

See weather overviewHow to use our weather pages